Regional Weather Roundup
Issued by NWS

Home | Current Version | Previous Version | Text Only | Print | Product List | Glossary On
Versions: 1 2 3 4 5 6 7 8 9 10 11 12 13 14 15 16 17 18 19 20 21 22 23 24 25 26 27 28 29 30 31 32 33 34 35 36 37 38 39 40 41 42 43 44 45 46 47 48 49 50
000
ASUS43 KDTX 250210
RWRMI
MICHIGAN HOURLY REGIONAL WEATHER ROUNDUP
NATIONAL WEATHER SERVICE DETROIT/PONTIAC MI
1000 PM EDT WED AUG 24 2016

NOTE: "FAIR" INDICATES FEW OR NO CLOUDS BELOW 12,000 FEET WITH NO
SIGNIFICANT WEATHER AND/OR OBSTRUCTION TO VISIBILITY.

MIZ047>049-052>055-059>063-066>070-074>076-081>083-250300-
SOUTHEAST LOWER MICHIGAN

CITY           SKY/WX    TMP DP  RH WIND       PRES   REMARKS
ADRIAN         CLOUDY    73  73 100 N5        29.98F
ALMA           MOCLDY    75  73  92 W8        29.95S
ANN ARBOR      CLOUDY    75  73  93 CALM      29.97F
BAD AXE        MOCLDY    72  71  98 S5        29.95S
CARO           CLOUDY    74  72  93 CALM      29.94S
DETROIT CITY   LGT RAIN  77  75  93 W5        29.97S
DETROIT        MOCLDY    77  74  90 SW8       29.97F
FLINT          MOCLDY    78  71  79 S6        29.96S
GROSSE ILE     CLOUDY    77  72  84 SW8       29.96S
HILLSDALE      CLOUDY    73  71  94 CALM      29.98F
HOWELL         MOCLDY    74  72  94 S3        29.98S

CITY           SKY/WX    TMP DP  RH WIND       PRES   REMARKS
JACKSON        PTCLDY    74  73  97 CALM      29.97F
LAMBERTVILLE   LGT RAIN  76  73  91 S6        29.97F
LANSING        PTCLDY    74  71  91 S8        29.97S
LAPEER         FAIR      74  70  86 SW5       29.97S
MASON          CLOUDY    73  71  94 S9        29.97S
MONROE         CLOUDY    76  73  90 S6        29.96F
MT. CLEMENS    MOCLDY    75  75 100 SW8       29.95F
PONTIAC        CLOUDY    74  72  93 SW3       29.97S
PORT HURON     CLOUDY    72  72 100 CALM      29.97S
TRI CITIES     PTCLDY    75  72  90 SW6       29.94S
MIDLAND        MOCLDY    74  71  89 SW3       29.92S
TROY           CLOUDY    77  73  90 SW6       29.99S
SAGINAW HB     PTCLDY    75  70  83 S6        29.94R
$$
MIZ043>046-050>051-056>058-064>065-071>073-077>080-250300-
SOUTHWEST LOWER MICHIGAN

CITY           SKY/WX    TMP DP  RH WIND       PRES   REMARKS
BATTLE CREEK   MOCLDY    72  72 100 S6        29.98R
BENTON HARBOR  CLEAR     75  70  84 W3        29.97R
BIG RAPIDS     CLOUDY    74  71  92 SW6       29.94S
COLDWATER      CLEAR     72  72  98 CALM      29.98S
FREMONT        CLOUDY    72  71  98 S5        29.94R
HOLLAND        CLEAR     73  70  90 SW3       29.96R
GRAND RAPIDS   CLEAR     74  70  87 SW5       29.96R
IONIA          FAIR      73  68  83 SW3       29.95S
KALAMAZOO      CLEAR     74  70  87 SW3       29.97R
LUDINGTON      MOCLDY    73  72  95 SW9       29.92R
MARSHALL       PTCLDY    73  72  94 CALM      29.97S
MOUNT PLEASANT CLEAR     75  70  85 SW5       29.93S
MUSKEGON       CLOUDY    76  73  91 SW8       29.95R
SOUTH HAVEN    CLEAR     75  73  93 S3        29.97R
$$
MIZ016>042-250300-
NORTHERN LOWER MICHIGAN

CITY           SKY/WX    TMP DP  RH WIND       PRES   REMARKS
ALPENA         MOCLDY    75  69  81 S7        29.89R
BEAVER ISLAND  PTCLDY    70  69  97 SW8       29.87R
BELLAIRE       CLOUDY    76  68  78 CALM      29.90R
CADILLAC       CLOUDY    73  69  86 SW6       29.95R
CHARLEVOIX     PTCLDY    73  70  91 SW9       29.91S
FRANKFORT      PTCLDY    73  70  91 SW5       29.91R
GAYLORD        PTCLDY    72  68  87 W7        29.92R
GRAYLING       MOCLDY    74  69  82 SW5       29.94R
HARBOR SPRINGS MOCLDY    73  70  90 SW8       29.88R
HOUGHTON LAKE  CLOUDY    74  68  81 SW7       29.94R
MANISTEE       PTCLDY    73  70  88 SW5       29.91S
OSCODA         CLEAR     73  70  92 S8        29.90S
PELLSTON       MOCLDY    73  68  84 W9        29.87R
ROGERS CITY    CLOUDY    73  68  82 CALM      29.88S
TRAVERSE CITY  PTCLDY    76  69  79 SW5       29.89R
$$
MIZ007>008-015-250300-
EASTERN UPPER MICHIGAN

CITY           SKY/WX    TMP DP  RH WIND       PRES   REMARKS
KINROSS        LGT RAIN  70  68  93 SW6       29.86R
MACKINAC ISLAN MOCLDY    71  71 100 W9G21     29.86S
NEWBERRY       CLOUDY    68  67  97 W6        29.85F
S. S. MARIE    RAIN      70  69  97 W7        29.84S FOG
$$
MIZ004>006-011>014-085-250300-
CENTRAL UPPER MICHIGAN

CITY           SKY/WX    TMP DP  RH WIND       PRES   REMARKS
MANISTIQUE     MOCLDY    65  63  92 CALM      29.86R
ESCANABA       CLEAR     69  68  96 W5        29.87R
MENOMINEE      CLEAR    N/A N/A N/A W5        29.89R
SAWYER-GWINN   PTCLDY    68  66  94 S3        29.89R
$$
MIZ001>003-009>011-084-250300-
WESTERN UPPER MICHIGAN

CITY           SKY/WX    TMP DP  RH WIND       PRES   REMARKS
IRON MOUNTAIN  MOCLDY    71  64  78 W5        29.89R
HOUGHTON       PTCLDY    72  63  73 W9        29.83S
COPPER HARBOR    N/A     72  65  78 VRB3      29.80S
IRONWOOD       PTCLDY    67  59  75 SW7       29.90R
$$

ABBREVIATIONS USED IN REMARKS
   TC - TEMPERATURE IN CELSIUS
  WCI - WIND CHILL INDEX
   HX - HEAT INDEX
  VSB - VISIBILITY




USA.gov is the U.S. government's official web portal to all federal, state and local government web resources and services.